#timestamp,LO_Frequency,Hit,StdDev 
1675857615.0,286046964.5,P
1675857615.9,286046964.5,N
1675857635.8,286046965.2,N
1675857655.6,286046970.7,N
1675857675.5,286046975.2,N
1675857695.3,286046978.6,N
1675857715.1,286046978.4,N
1675857735.9,286046975.2,N
1675857755.7,286046970.7,Y
1675857775.6,286046992.0,P
1675857795.4,286046999.6,N
1675857815.2,286046987.4,N
1675857835.1,286046992.9,N
1675857836.0,286046992.9,N
1675857855.8,286046993.6,N
1675857875.6,286046995.6,N
1675857895.5,286046997.5,N
1675857915.3,286046999.6,N
1675857935.1,286047001.2,N
1675857955.9,286047000.7,N
1675857975.7,286047001.4,N
1675857995.6,286047000.7,N
1675858015.4,286046999.8,N
1675858035.2,286047001.6,N
1675858055.1,286047001.9,N
1675858056.0,286047001.9,N
1675858075.8,286047003.8,N
1675858095.6,286046980.1,N
1675858115.5,286046996.4,N
1675858135.3,286046983.9,N
1675858155.2,286046975.9,Y
1675858175.9,286046974.3,P
1675858195.7,286046978.6,N
1675858215.6,286046982.8,N
1675858235.4,286046984.0,N
1675858255.3,286046978.7,Y
1675858275.1,286046995.7,P
1675858276.0,286046995.7,N
1675858295.8,286046994.9,N
1675858315.7,286046989.0,N
1675858335.5,286046995.2,N
1675858355.3,286046999.5,N
1675858375.2,286046995.3,N
1675858395.0,286046997.8,N
1675858395.9,286046997.8,N
1675858415.8,286047004.3,N
1675858435.6,286046990.6,N
1675858455.4,286046982.3,Y
1675858475.3,286046987.7,P
1675858495.1,286046999.1,N
1675858515.8,286047002.6,N
1675858535.7,286047004.5,N
1675858555.5,286047010.5,N
1675858575.3,286047011.5,N
1675858595.2,286047011.5,N
1675858615.0,286047012.1,N
1675858615.9,286047012.1,N
1675858635.8,286047001.9,N
1675858655.6,286047011.9,N
1675858675.4,286046993.5,N
1675858695.3,286046997.9,N
1675858715.1,286046997.9,N
1675858735.8,286046998.2,N
1675858755.7,286047001.6,N
1675858775.5,286047006.9,N
1675858795.4,286047003.3,N
1675858815.2,286047001.1,N
1675858835.0,286047003.9,N
1675858835.9,286047003.9,N
1675858855.8,286047003.6,N
1675858875.6,286047004.5,N
1675858895.4,286047010.5,N
1675858915.3,286047007.7,N
1675858935.1,286046997.9,N
1675858955.9,286046989.6,N
1675858975.7,286046985.4,N
1675858995.5,286046997.0,N
1675859015.4,286046995.0,N
1675859035.2,286047001.4,N
1675859055.0,286047000.2,N
1675859055.9,286047000.2,N
1675859075.8,286046993.7,N
1675859095.6,286046996.5,N
1675859115.4,286046998.0,N
1675859135.3,286046998.1,N
1675859155.1,286047001.6,N
1675859175.9,286047001.5,N
1675859195.7,286046999.8,N
1675859215.5,286046991.7,N
1675859235.4,286046994.5,N
1675859255.2,286046985.4,N
1675859275.0,286046990.0,N
1675859275.9,286046990.0,N
1675859295.8,286046990.7,N
1675859315.6,286046983.5,N
1675859335.5,286046981.8,N
1675859355.3,286046976.1,Y
1675859375.1,286046979.2,P
1675859395.9,286046974.6,N
1675859415.7,286046966.9,P
1675859435.6,286046962.9,Y
1675859455.4,286046981.7,P
1675859475.2,286046978.1,P
1675859495.1,286046979.1,P
1675859496.0,286046979.1,Y
1675859515.8,286047002.9,P
1675859535.6,286047006.7,N
1675859555.5,286047010.4,N
1675859575.3,286047018.1,N
1675859595.2,286047015.0,N
1675859615.9,286047016.8,N
1675859635.7,286047010.8,N
1675859655.6,286047008.8,N
1675859675.4,286047011.0,N
1675859695.2,286047006.4,N
1675859715.1,286047010.5,N
1675859716.0,286047010.5,N
1675859735.8,286047008.7,N
1675859755.7,286047007.7,N
1675859775.5,286047011.0,N
1675859795.3,286047011.1,N
1675859815.2,286047008.2,N
1675859835.0,286047016.0,N
1675859835.9,286047016.0,N
1675859855.8,286047020.8,N
1675859875.6,286047028.0,Y
1675859895.4,286047020.9,P
1675859915.3,286047014.1,N
1675859935.1,286047019.5,P
1675859955.8,286047024.9,Y
1675859975.7,286047006.3,P
1675859995.5,286047010.6,N
1675860015.4,286047007.9,N
1675860035.2,286047009.5,N
1675860055.0,286047007.5,N
1675860055.9,286047007.5,N
1675860075.8,286047002.3,N
1675860095.6,286046999.7,N
1675860115.4,286047001.9,N
1675860135.3,286046996.4,N
1675860155.1,286046992.6,N
1675860175.9,286046991.8,N
1675860195.7,286046985.6,N
1675860215.5,286046985.5,N
1675860235.4,286046995.2,N
1675860255.2,286047001.6,N
1675860275.0,286046996.6,N
1675860275.9,286046996.6,N
1675860295.8,286046993.5,N
1675860315.6,286046988.4,N
1675860335.5,286046985.4,N
1675860355.3,286046997.6,N
1675860375.1,286046989.7,N
1675860395.9,286046987.2,N
1675860415.7,286046991.7,N
1675860435.5,286046995.6,N
1675860455.4,286046998.0,N
1675860475.2,286046994.1,N
1675860495.1,286046987.3,N
1675860496.0,286046987.3,N
1675860515.8,286046985.6,N
1675860535.6,286046983.2,N
1675860555.5,286046984.2,N
1675860575.3,286046996.0,N
1675860595.1,286046996.2,N
1675860615.9,286046991.7,N
1675860635.7,286046987.3,N
1675860655.6,286046992.7,N
1675860675.4,286046986.4,N
1675860695.2,286046990.8,N
1675860715.1,286046985.8,N
1675860716.0,286046985.8,N
1675860735.8,286046981.6,Y
1675860755.6,286046995.8,P
1675860775.5,286047002.7,N
1675860795.3,286047008.0,N
1675860815.2,286047008.0,N
1675860835.9,286047013.2,N
1675860855.7,286047007.0,N
1675860875.6,286046997.8,N
1675860895.4,286046995.8,N
1675860915.2,286046992.2,N
1675860935.1,286046993.3,N
1675860936.0,286046993.3,N
1675860955.8,286046990.5,N
1675860975.7,286046988.5,N
1675860995.5,286046997.1,N
1675861015.3,286046998.4,N
1675861035.2,286046992.5,N
1675861055.0,286046987.0,N
1675861055.9,286046987.0,N
1675861075.7,286046985.3,N
1675861095.6,286046983.8,N
1675861115.4,286046983.8,N
1675861135.3,286046987.2,N
1675861155.1,286046988.1,N
1675861156.0,286046988.1,N
1675861175.8,286046983.3,N
1675861195.7,286046979.4,N
